Current Version              Previous Version:    01  02  03  04  05  06  07  08  09  10  11  12  13  14  15  16  17  18  19  20  21  22  23  24  25  26  27  28  29  30  
   31  32  33  34  35  36  37  38  39  40  41  42  43  44  45  46  47  48  49  50  51  52  53  54  55  56  57  58  59  60  

[Printable]
787
ASUS44 KFWD 200503
RWRTX
NORTH TEXAS HOURLY WEATHER ROUNDUP
NATIONAL WEATHER SERVICE FORT WORTH TX
1100 PM CST FRI DEC 19 2014

NOTE: "FAIR" INDICATES FEW OR NO CLOUDS BELOW 12,000 FEET WITH NO
SIGNIFICANT WEATHER AND/OR OBSTRUCTIONS TO VISIBILITY.

TXZ118-119-200600-
DALLAS/FORT WORTH METROPLEX

CITY           SKY/WX    TMP DP  RH WIND       PRES   REMARKS
DFW AIRPORT    CLOUDY    47  43  86 N7        30.22R
DALLAS LOVE    CLOUDY    48  44  86 N7        30.22R
FTW MEACHAM    CLOUDY    46  42  86 NW8       30.22R FOG
DAL-EXECUTIVE  CLOUDY    49  44  83 N6        30.21R
FTW-ALLIANCE   CLOUDY    45  42  89 N7        30.22S
ARLINGTON      CLOUDY    49  43  80 N8        30.22R
GRAND PRAIRIE  CLOUDY    47  46  95 N8        30.23S
ADDISON        CLOUDY    47  47 100 N5        30.24R
MESQUITE       CLOUDY    47  45  91 N5        30.23R
LANCASTER      CLOUDY    47  43  86 N6        30.23R
$$

TXZ091>094-102>105-117-120-121-131>134-200600-
NORTH CENTRAL TEXAS

CITY           SKY/WX    TMP DP  RH WIND       PRES   REMARKS
SHRMAN/DENISON CLOUDY    44  43  97 CALM      30.24R FOG
BRIDGEPORT     CLOUDY    45  41  86 CALM      30.25S
DECATUR        CLOUDY    44  40  87 CALM      30.22S
DENTON         CLOUDY    45  41  86 N7        30.23R
MCKINNEY       CLOUDY    46  44  93 N7        30.22S
ROCKWALL       CLOUDY    47  46  96 N5        30.21R FOG
TERRELL        CLOUDY    49  46  90 NE6       30.22R FOG
WAXAHACHIE     CLOUDY    47  47  99 N3        30.23R FOG
CLEBURNE       CLOUDY    46  46 100 N6        30.24R FOG
GRANBURY       CLOUDY    48  44  85 CALM      30.25R
$$

TXZ083>090-098>101-113>116-127>130-139>142-154-155-200600-
WESTERN NORTH TEXAS

CITY           SKY/WX    TMP DP  RH WIND       PRES   REMARKS
WICHITA FALLS  CLOUDY    44  40  85 E5        30.22S
WF-KICKAPOO    CLOUDY    44  39  83 SE3       30.24S
VERNON         CLOUDY    45  39  81 CALM      30.23R
ABILENE        CLOUDY    44  41  89 CALM      30.21R
BRECKENRIDGE   CLOUDY    46  43  88 E7        30.21F
MINERAL WELLS  CLOUDY    46  40  79 N5        30.21S
STEPHENVILLE   CLOUDY    46  42  85 CALM      30.24R
COMANCHE       CLOUDY    45  45 100 NE6       30.21S FOG
COLEMAN        CLOUDY    46  43  88 NE6       30.21S
$$

TXZ143>147-156>162-174-175-200600-
CENTRAL TEXAS

CITY           SKY/WX    TMP DP  RH WIND       PRES   REMARKS
WACO           CLOUDY    48  45  89 N10       30.21S
WACO-TSTC      CLOUDY    48  46  93 N7        30.21S
WACO-MCGREGOR  CLOUDY    48  43  81 N8        30.22R
CORSICANA      CLOUDY    49  45  86 NE5       30.22R
MEXIA          CLOUDY    47  45  93 N5        30.19S
HEARNE         CLOUDY    48  47  97 CALM      30.20S FOG
CAMERON        CLOUDY    49  48  95 N9        30.19S FOG
TEMPLE         CLOUDY    48  41  76 N8        30.19S
KILLEEN        CLOUDY    46  45  99 N7        30.21R
KILLEEN-SKYLRK CLOUDY    46  39  76 NW7       30.18R
FORT HOOD      CLOUDY    46  46  97 NW8       30.20R
GATESVILLE     MOCLDY    46  46 100 N7        30.23S
HAMILTON       CLOUDY    46  46 100 N7        30.22S FOG
$$

TXZ095>097-106>112-122>126-135>138-148>153-164>167-200600-
EAST TEXAS

CITY           SKY/WX    TMP DP  RH WIND       PRES   REMARKS
PARIS          CLOUDY    45  41  87 CALM      30.23S
SULPHUR SPRNGS CLOUDY    46  45  95 CALM      30.24R FOG
MOUNT PLEASANT CLOUDY    46  44  95 NE5       30.23S
MINEOLA        CLOUDY    46  46 100 CALM      30.23R FOG
TYLER          CLOUDY    47  45  93 N6        30.21R FOG
LONGVIEW       CLOUDY    47  44  90 NE5       30.19S FOG
MARSHALL       CLOUDY    48  46  91 NE3       30.22S
PALESTINE      CLOUDY    47  47 100 N6        30.20S FOG
JACKSONVILLE   FOG       47  47  98 NE6       30.19S VSB 1
HENDERSON      CLOUDY    46  46  99 NE7       30.20S FOG
NACOGDOCHES    CLOUDY    46  45  93 NE5       30.18S
LUFKIN         CLOUDY    51  46  83 N6        30.17R
$$

SUPPLEMENTAL OBSERVATIONS (CENTRAL)

CITY           SKY/WX    TMP DP  RH WIND       PRES   REMARKS
$$

SUPPLEMENTAL OBSERVATIONS (WEST)

CITY           SKY/WX    TMP DP  RH WIND       PRES   REMARKS
$$

SUPPLEMENTAL OBSERVATIONS (EAST)

CITY           SKY/WX    TMP DP  RH WIND       PRES   REMARKS
$$

SUPPLEMENTAL OBSERVATIONS ARE A COLLECTION OF AUTOMATED INSTRUMENTS
THAT ARE MAINTAINED BY A VARIETY OF FEDERAL AND STATE AGENCIES.
CERTAIN ELEMENTS...SUCH AS HUMIDITY VALUES AND SUSTAINED WIND
SPEEDS...MAY BE APPROXIMATED.